Location: Brunnen
(48.6541°N, 10.9920°E)
Time: 01:15:41
(UTC+00:00)

Cosmos 1726 Rocket - Pass Details

Date: 01 June 2020
Orbit: 603 x 629 km, 82.5° (Epoch: 11 July)

Event Time Altitude Azimuth Distance (km) Brightness Sun altitude
Rises 22:21:30 0° 356° (N) 2,870 8.6 -18.2°
Reaches altitude 10° 22:23:51 10° 4° (N) 1,962 7.3 -18.2°
Maximum altitude 22:27:55 38° 74° (ENE) 924 4.4 -18.4°
Enters shadow 22:29:33 28° 120° (ESE) 1,155 4.6 -18.4°
